Content
SEND FEEDBACK

Daily
Averages
Monthly
Summary
United States of America

TAYLOR, NORTH DAKOTA


Home > North America > United States > North Dakota
Elevation: 2462 feet     Latitude: 46 53N     Longitude: 102 19W

WEATHER
 
SELECT A DAY
Number of Records: 198,391;   Date Range: 1/1/95 - 10/23/14
 
SHARE

PRINT THIS DATA

[ ← Previous Day ]
WEATHER ALMANAC - JANUARY 31, 2013
[ Next Day → ]
[ °C ]   °F
Weather ElementAverageHighLow
Temperature-11.5 °F7 °F (11:56 pm)-18.4 °F (6:25 am)
Dewpoint-18.5 °F1 °F (11:56 pm)-25.1 °F (7:56 am)
Humidity71.3 %77 % (12:13 am)62 % (1:56 pm)
Barometer30.20 in30.47 in (10:56 am)29.98 in (12:13 am)
Wind Speed19.5 mph27.6 mph (1:11 am)
Wind Gust35.7 mph (1:29 am)
Weather ElementAverage
Visibility4.8 mi
Wind DirectionWNW (291.5 °)

Weather ElementTotal
Precipitation---
Heating Degree Days70.7 (Base 65)
Averaged from 47 records on January 31, 2013
WEATHER CONDITIONS BREAKOUT
WIND DIRECTION BREAKOUT
WEATHER BY HOUR - JANUARY 31, 2013
[ °C ]   °F
Local TimeTemperatureDewpointHumidityBarometerVisibilityWind DirectionWind SpeedGust SpeedPrecipitationEventsConditions
12:13 AM-9.4 °F-14.8 °F77 %29.98 in1.5 miNNW (330°)18.4 mph27.6 mph0.00 inSnowLight Snow
12:45 AM-9.4 °F-16.6 °F71 %29.99 in1.8 miNNW (330°)21.9 mph28.8 mph0.00 inSnowLight Snow
12:56 AM-11.0 °F-17.0 °F75 %30.22 in1.2 miNNW (330°)21.9 mph28.8 mph0.00 inSnowLight Snow
1:11 AM-11.2 °F-18.4 °F70 %30.00 in0.8 miNNW (330°)27.6 mph33.4 mph0.00 inSnowLight Snow
1:29 AM-13.0 °F-18.4 °F77 %30.01 in1.2 miNW (320°)26.5 mph35.7 mph0.00 inOvercast
1:41 AM-13.0 °F-20.2 °F70 %30.02 in2.0 miNW (320°)25.3 mph33.4 mph0.00 inOvercast
1:56 AM-13.0 °F-20.0 °F71 %30.25 in3.0 miNW (320°)23.0 mph29.9 mph0.00 inOvercast
2:01 AM-14.8 °F-20.2 °F77 %30.03 in1.8 miNW (310°)23.0 mph29.9 mph0.00 inHaze
2:10 AM-14.8 °F-20.2 °F77 %30.03 in1.2 miNW (310°)23.0 mph33.4 mph0.00 inOvercast
2:19 AM-14.8 °F-20.2 °F77 %30.04 in0.8 miNW (310°)21.9 mph33.4 mph0.00 in
2:30 AM-14.8 °F-20.2 °F77 %30.04 in1.2 miNW (310°)24.2 mph0.00 inOvercast
2:53 AM-14.8 °F-20.2 °F77 %30.06 in1.5 miNW (310°)20.7 mph33.4 mph0.00 inMostly Cloudy
2:56 AM-15.0 °F-22.0 °F71 %30.29 in2.0 miWNW (300°)20.7 mph0.00 inHaze
3:02 AM-14.8 °F-22.0 °F70 %30.06 in5.0 miWNW (300°)19.6 mphHaze
3:12 AM-14.8 °F-22.0 °F70 %30.05 in1.8 miWNW (300°)24.2 mph29.9 mphHaze
3:24 AM-14.8 °F-22.0 °F70 %30.06 in0.5 miNW (310°)27.6 mph34.5 mph0.00 in
3:46 AM-16.6 °F-22.0 °F76 %30.09 in2.0 miWNW (300°)20.7 mph0.00 inMostly Cloudy
3:50 AM-16.6 °F-22.0 °F76 %30.10 in4.0 miWNW (300°)18.4 mph0.00 inHaze
3:56 AM-16.1 °F-22.0 °F74 %30.34 in7.0 miWNW (300°)18.4 mph26.5 mph0.00 inScattered Clouds
4:28 AM-16.6 °F-23.8 °F70 %30.10 in1.8 miNW (310°)26.5 mph0.00 inScattered Clouds
4:38 AM-16.6 °F-23.8 °F70 %30.10 in0.8 miNW (310°)27.6 mph0.00 in
4:56 AM-17.0 °F-23.1 °F74 %30.34 in0.8 miNW (310°)26.5 mph0.00 in
5:05 AM-16.6 °F-23.8 °F70 %30.11 in1.0 miNW (310°)24.2 mph0.00 in
5:12 AM-16.6 °F-23.8 °F70 %30.12 in1.2 miNW (310°)27.6 mph0.00 inScattered Clouds
5:37 AM-16.6 °F-23.8 °F70 %30.13 in2.5 miNW (310°)24.2 mph0.00 inPartly Cloudy
5:48 AM-16.6 °F-23.8 °F70 %30.14 in1.2 miNW (310°)25.3 mph32.2 mph0.00 inScattered Clouds
5:56 AM-17.0 °F-23.1 °F74 %30.38 in1.2 miNW (310°)25.3 mph32.2 mph0.00 inMostly Cloudy
6:25 AM-18.4 °F-23.8 °F76 %30.15 in2.5 miNW (310°)21.9 mph0.00 inHaze
6:35 AM-18.4 °F-23.8 °F76 %30.15 in3.0 miNW (310°)20.7 mph0.00 inHaze
6:56 AM-18.0 °F-24.0 °F74 %30.40 in9.0 miNW (310°)18.4 mph0.00 inClear
7:56 AM-18.0 °F-25.1 °F70 %30.42 in7.0 miWNW (300°)21.9 mphClear
8:56 AM-17.0 °F-24.0 °F70 %30.46 in8.0 miWNW (290°)21.9 mphClear
9:56 AM-15.0 °F-24.0 °F64 %30.46 in10.0 miWNW (290°)18.4 mphClear
10:56 AM-13.0 °F-20.9 °F68 %30.47 in10.0 miWNW (300°)17.3 mphClear
11:56 AM-9.9 °F-18.9 °F65 %30.44 in10.0 miWNW (300°)15.0 mphClear
12:56 PM-8.0 °F-17.0 °F65 %30.42 in10.0 miWest (280°)19.6 mphClear
1:56 PM-7.1 °F-17.0 °F62 %30.40 in10.0 miWNW (290°)19.6 mphClear
2:56 PM-6.0 °F-15.0 °F65 %30.39 in10.0 miWest (280°)11.5 mphClear
3:56 PM-5.1 °F-15.0 °F62 %30.39 in10.0 miWest (270°)12.7 mphClear
4:56 PM-7.1 °F-16.1 °F65 %30.37 in10.0 miWest (270°)5.8 mphClear
5:56 PM-4.0 °F-11.9 °F69 %30.35 in10.0 miWest (270°)8.1 mphOvercast
7:56 PM0.0 °F-9.0 °F66 %30.31 in10.0 miSW (230°)5.8 mphOvercast
8:56 PM1.0 °F-7.1 °F69 %30.28 in10.0 miSSW (210°)5.8 mphOvercast
9:56 PM1.9 °F-5.1 °F72 %30.25 in6.0 miSSW (200°)6.9 mph0.00 inSnowLight Snow
10:56 PM5.0 °F-2.0 °F73 %30.21 in10.0 miSouth (180°)5.8 mph0.00 inOvercast
11:43 PM6.8 °F-0.4 °F72 %29.98 in10.0 miSSW (200°)11.5 mphOvercast
11:56 PM7.0 °F1.0 °F77 %30.17 in10.0 miSouth (190°)11.5 mphOvercast
Hourly data recorded from KDIK, located miles away from Taylor, North Dakota







STORIES FROM OUR PARTNERS